sat.trackr.live / text

‹ back to catalog

STARLINK-36078

NORAD 67050 · 2025-294W

PAYLOAD ACTIVE UNKNOWN

§ Identity

Operator
Country
US
Launch date
2025-12-11
Launch site
AFETR
Launch vehicle
Mass (kg)
RCS (m²)

Purposes: comms

External: N2YO · Heavens-Above · Gunter

§ Orbital elements

Epoch: 2026-09-19T15:17:31.240896Z

Period
94.27 min
Inclination
43.0019°
Eccentricity
0.0001290
Mean motion
15.27600812 rev/d
Perigee alt
482.1 km
Apogee alt
483.9 km
Semi-major
6,861.1 km
B*
5.7659e-4
RAAN
22.5233°
Arg perigee
126.4974°
Mean anomaly
233.5996°
Rev number
4,446

§ Raw data

STARLINK-360781 67050U 25294W   26262.63716714  .00015648  00000+0  57659-3 0  99912 67050  43.0019  22.5233 0001290 126.4974 233.5996 15.27600812 44466

JSON: /api/v1/satellites/67050 · /tle

For live sub-satellite position, see the globe view (requires WebGL).

§ Visibility from observer

Set your observer location to see the next 7 days of passes ≥ 10°. The values pass through the URL so the page stays shareable.

No JS? Fill the form by hand. The geolocation button needs JavaScript.